NSS-12

Last updated on Thu Dec 18 2025 00:02:48 GMT+0000 (Coordinated Universal Time)

1 36032U 09058A 25351.56656233 .00000096 00000+0 00000+0 0 9991 2 36032 0.0675 65.1698 0004556 199.9543 82.2835 1.00271376 59097
UTC large
Height (km)
Speed (km/s)
/
Latitude / Longitude
Inclination (degrees)
Orbital Period (minutes)
Azimuth
Elevation
Range (km)
Doppler Factor

Next 0 passes for location: London (51.5072 / 0.1276)

Sorry there are no passes over London.